Time,TemperatureF,DewpointF,PressureIn,WindDirection,WindDirectionDegrees,WindSpeedMPH,WindSpeedGustMPH,Humidity,HourlyPrecipIn,Conditions,Clouds,dailyrainin,SoftwareType,DateUTC
2013-02-05 00:03:00,11.0,-8.0,29.87,WNW,287,7.0,20.0,41,0.00,,,0.00,,2013-02-05 05:03:00,
2013-02-05 00:12:00,11.0,-8.0,29.87,WNW,287,7.0,20.0,41,0.00,,,0.00,,2013-02-05 05:12:00,
2013-02-05 00:22:00,11.0,-8.0,29.88,WNW,288,11.0,27.0,41,0.00,,,0.00,,2013-02-05 05:22:00,
2013-02-05 00:32:00,11.0,-8.0,29.88,NNW,334,7.0,18.0,41,0.00,,,0.00,,2013-02-05 05:32:00,
2013-02-05 00:42:00,11.0,-8.0,29.88,NNW,334,7.0,18.0,41,0.00,,,0.00,,2013-02-05 05:42:00,
2013-02-05 00:52:00,10.0,-9.0,29.88,West,270,12.0,19.0,40,0.00,,,0.00,,2013-02-05 05:52:00,
2013-02-05 01:02:00,10.0,-9.0,29.88,West,270,12.0,19.0,40,0.00,,,0.00,,2013-02-05 06:02:00,
2013-02-05 01:11:00,10.0,-9.0,29.88,West,270,12.0,19.0,40,0.00,,,0.00,,2013-02-05 06:11:00,
2013-02-05 01:22:00,10.0,-9.0,29.90,WNW,296,10.0,17.0,41,0.00,,,0.00,,2013-02-05 06:22:00,
2013-02-05 01:32:00,10.0,-9.0,29.90,WNW,295,9.0,19.0,41,0.00,,,0.00,,2013-02-05 06:32:00,
2013-02-05 01:42:00,10.0,-9.0,29.90,WNW,295,9.0,19.0,41,0.00,,,0.00,,2013-02-05 06:42:00,
2013-02-05 01:52:00,10.0,-8.0,29.91,NNW,332,11.0,20.0,42,0.00,,,0.00,,2013-02-05 06:52:00,
2013-02-05 02:01:00,10.0,-9.0,29.91,West,278,12.0,20.0,41,0.00,,,0.00,,2013-02-05 07:01:00,
2013-02-05 02:11:00,10.0,-9.0,29.91,West,278,12.0,20.0,41,0.00,,,0.00,,2013-02-05 07:11:00,
2013-02-05 02:22:00,10.0,-8.0,29.91,WNW,290,8.0,19.0,42,0.00,,,0.00,,2013-02-05 07:22:00,
2013-02-05 02:32:00,9.0,-9.0,29.92,North,359,7.0,18.0,42,0.00,,,0.00,,2013-02-05 07:32:00,
2013-02-05 02:42:00,9.0,-9.0,29.92,North,359,7.0,18.0,42,0.00,,,0.00,,2013-02-05 07:42:00,
2013-02-05 02:52:00,9.0,-10.0,29.92,WNW,289,8.0,18.0,41,0.00,,,0.00,,2013-02-05 07:52:00,
2013-02-05 03:01:00,9.0,-10.0,29.92,WNW,289,8.0,18.0,41,0.00,,,0.00,,2013-02-05 08:01:00,
2013-02-05 03:11:00,9.0,-10.0,29.92,WNW,289,8.0,18.0,41,0.00,,,0.00,,2013-02-05 08:11:00,
2013-02-05 03:21:00,9.0,-9.0,29.93,WNW,287,6.0,26.0,42,0.00,,,0.00,,2013-02-05 08:21:00,
2013-02-05 03:32:00,9.0,-9.0,29.93,NNW,337,7.0,22.0,42,0.00,,,0.00,,2013-02-05 08:32:00,
2013-02-05 03:42:00,9.0,-9.0,29.93,NNW,337,7.0,22.0,42,0.00,,,0.00,,2013-02-05 08:42:00,
2013-02-05 03:52:00,9.0,-9.0,29.94,WNW,293,5.0,18.0,43,0.00,,,0.00,,2013-02-05 08:52:00,
2013-02-05 04:02:00,9.0,-9.0,29.95,WNW,301,7.0,14.0,43,0.00,,,0.00,,2013-02-05 09:02:00,
2013-02-05 04:12:00,9.0,-9.0,29.96,NW,305,4.0,18.0,43,0.00,,,0.00,,2013-02-05 09:12:00,
2013-02-05 04:22:00,9.0,-9.0,29.96,NW,305,4.0,18.0,43,0.00,,,0.00,,2013-02-05 09:22:00,
2013-02-05 04:32:00,8.0,-9.0,29.96,WNW,299,6.0,13.0,44,0.00,,,0.00,,2013-02-05 09:32:00,
2013-02-05 04:42:00,8.0,-9.0,29.96,WNW,299,6.0,13.0,44,0.00,,,0.00,,2013-02-05 09:42:00,
2013-02-05 04:51:00,8.0,-9.0,29.96,WNW,288,6.0,13.0,45,0.00,,,0.00,,2013-02-05 09:51:00,
2013-02-05 05:02:00,8.0,-8.0,29.96,NW,319,6.0,17.0,46,0.00,,,0.00,,2013-02-05 10:02:00,
2013-02-05 05:11:00,8.0,-8.0,29.97,NW,316,5.0,14.0,46,0.00,,,0.00,,2013-02-05 10:11:00,
2013-02-05 05:21:00,8.0,-8.0,29.97,NW,316,5.0,14.0,46,0.00,,,0.00,,2013-02-05 10:21:00,
2013-02-05 05:32:00,8.0,-8.0,29.97,West,261,7.0,16.0,47,0.00,,,0.00,,2013-02-05 10:32:00,
2013-02-05 05:42:00,8.0,-8.0,29.97,West,261,7.0,16.0,47,0.00,,,0.00,,2013-02-05 10:42:00,
2013-02-05 05:52:00,7.0,-9.0,29.98,NW,322,5.0,13.0,47,0.00,,,0.00,,2013-02-05 10:52:00,
2013-02-05 06:01:00,7.0,-9.0,29.99,WNW,295,5.0,13.0,48,0.00,,,0.00,,2013-02-05 11:01:00,
2013-02-05 06:11:00,7.0,-9.0,29.99,WNW,295,5.0,13.0,48,0.00,,,0.00,,2013-02-05 11:11:00,
2013-02-05 06:22:00,7.0,-8.0,29.99,NW,311,5.0,12.0,49,0.00,,,0.00,,2013-02-05 11:22:00,
2013-02-05 06:32:00,6.0,-9.0,30.00,NW,318,3.0,9.0,50,0.00,,,0.00,,2013-02-05 11:32:00,
2013-02-05 06:42:00,6.0,-9.0,30.00,NW,318,3.0,9.0,50,0.00,,,0.00,,2013-02-05 11:42:00,
2013-02-05 06:52:00,6.0,-9.0,30.00,WNW,293,5.0,13.0,50,0.00,,,0.00,,2013-02-05 11:52:00,
2013-02-05 07:02:00,6.0,-9.0,30.01,WNW,294,6.0,15.0,50,0.00,,,0.00,,2013-02-05 12:02:00,
2013-02-05 07:12:00,6.0,-9.0,30.01,WNW,294,6.0,15.0,50,0.00,,,0.00,,2013-02-05 12:12:00,
2013-02-05 07:22:00,6.0,-9.0,30.01,WNW,296,4.0,12.0,49,0.00,,,0.00,,2013-02-05 12:22:00,
2013-02-05 07:32:00,6.0,-9.0,30.03,WNW,289,5.0,14.0,49,0.00,,,0.00,,2013-02-05 12:32:00,
2013-02-05 07:42:00,6.0,-9.0,30.03,WNW,289,5.0,14.0,49,0.00,,,0.00,,2013-02-05 12:42:00,
2013-02-05 07:52:00,7.0,-9.0,30.03,WNW,283,7.0,16.0,48,0.00,,,0.00,,2013-02-05 12:52:00,
2013-02-05 08:02:00,7.0,-9.0,30.03,NW,310,7.0,16.0,47,0.00,,,0.00,,2013-02-05 13:02:00,
2013-02-05 08:12:00,7.0,-9.0,30.03,NW,310,7.0,16.0,47,0.00,,,0.00,,2013-02-05 13:12:00,
2013-02-05 08:22:00,7.0,-9.0,30.05,WNW,289,3.0,13.0,47,0.00,,,0.00,,2013-02-05 13:22:00,
2013-02-05 08:32:00,8.0,-8.0,30.06,NW,307,5.0,12.0,46,0.00,,,0.00,,2013-02-05 13:32:00,
2013-02-05 08:42:00,8.0,-8.0,30.06,NW,307,5.0,12.0,46,0.00,,,0.00,,2013-02-05 13:42:00,
2013-02-05 08:52:00,8.0,-9.0,30.06,WNW,295,8.0,15.0,45,0.00,,,0.00,,2013-02-05 13:52:00,
2013-02-05 09:01:00,9.0,-8.0,30.06,WNW,282,6.0,18.0,46,0.00,,,0.00,,2013-02-05 14:01:00,
2013-02-05 09:12:00,9.0,-8.0,30.06,WNW,282,6.0,18.0,46,0.00,,,0.00,,2013-02-05 14:12:00,
2013-02-05 09:22:00,10.0,-7.0,30.06,WSW,251,5.0,18.0,45,0.00,,,0.00,,2013-02-05 14:22:00,
2013-02-05 09:32:00,10.0,-8.0,30.06,WNW,302,8.0,18.0,44,0.00,,,0.00,,2013-02-05 14:32:00,
2013-02-05 09:42:00,10.0,-8.0,30.06,WNW,302,8.0,18.0,44,0.00,,,0.00,,2013-02-05 14:42:00,
2013-02-05 09:52:00,11.0,-7.0,30.06,West,276,12.0,19.0,43,0.00,,,0.00,,2013-02-05 14:52:00,
2013-02-05 10:02:00,11.0,-8.0,30.07,NW,322,6.0,16.0,42,0.00,,,0.00,,2013-02-05 15:02:00,
2013-02-05 10:11:00,11.0,-8.0,30.07,NW,322,6.0,16.0,42,0.00,,,0.00,,2013-02-05 15:11:00,
2013-02-05 10:22:00,12.0,-7.0,30.07,WNW,287,7.0,16.0,41,0.00,,,0.00,,2013-02-05 15:22:00,
2013-02-05 10:32:00,12.0,-8.0,30.07,WNW,297,8.0,18.0,40,0.00,,,0.00,,2013-02-05 15:32:00,
2013-02-05 10:42:00,12.0,-8.0,30.07,WNW,297,8.0,18.0,40,0.00,,,0.00,,2013-02-05 15:42:00,
2013-02-05 10:52:00,12.0,-8.0,30.08,NNW,332,6.0,15.0,39,0.00,,,0.00,,2013-02-05 15:52:00,
2013-02-05 11:01:00,13.0,-7.0,30.08,NW,313,4.0,15.0,40,0.00,,,0.00,,2013-02-05 16:01:00,
2013-02-05 11:12:00,13.0,-7.0,30.08,NW,313,4.0,15.0,40,0.00,,,0.00,,2013-02-05 16:12:00,
2013-02-05 11:22:00,13.0,-8.0,30.08,WNW,293,8.0,22.0,37,0.00,,,0.00,,2013-02-05 16:22:00,
2013-02-05 11:32:00,14.0,-7.0,30.08,WNW,289,7.0,15.0,37,0.00,,,0.00,,2013-02-05 16:32:00,
2013-02-05 11:42:00,14.0,-7.0,30.08,WNW,289,7.0,15.0,37,0.00,,,0.00,,2013-02-05 16:42:00,
2013-02-05 11:52:00,14.0,-8.0,30.08,NW,323,8.0,17.0,36,0.00,,,0.00,,2013-02-05 16:52:00,
2013-02-05 12:01:00,14.0,-7.0,30.07,West,271,7.0,13.0,37,0.00,,,0.00,,2013-02-05 17:01:00,
2013-02-05 12:12:00,14.0,-7.0,30.07,West,271,7.0,13.0,37,0.00,,,0.00,,2013-02-05 17:12:00,
2013-02-05 12:22:00,15.0,-7.0,30.07,NNW,347,6.0,14.0,37,0.00,,,0.00,,2013-02-05 17:22:00,
2013-02-05 12:32:00,15.0,-7.0,30.06,WNW,293,6.0,13.0,36,0.00,,,0.00,,2013-02-05 17:32:00,
2013-02-05 12:42:00,15.0,-7.0,30.06,WNW,293,6.0,13.0,36,0.00,,,0.00,,2013-02-05 17:42:00,
2013-02-05 12:52:00,15.0,-8.0,30.06,WNW,293,7.0,14.0,35,0.00,,,0.00,,2013-02-05 17:52:00,
2013-02-05 13:02:00,16.0,-6.0,30.06,WNW,286,7.0,11.0,36,0.00,,,0.00,,2013-02-05 18:02:00,
2013-02-05 13:11:00,16.0,-6.0,30.06,WNW,286,7.0,11.0,36,0.00,,,0.00,,2013-02-05 18:11:00,
2013-02-05 13:22:00,17.0,-5.0,30.06,NNW,337,6.0,11.0,36,0.00,,,0.00,,2013-02-05 18:22:00,
2013-02-05 13:32:00,16.0,-7.0,30.05,West,276,1.0,13.0,35,0.00,,,0.00,,2013-02-05 18:32:00,
2013-02-05 13:42:00,16.0,-7.0,30.05,West,276,1.0,13.0,35,0.00,,,0.00,,2013-02-05 18:42:00,
2013-02-05 13:52:00,17.0,-7.0,30.06,WNW,283,5.0,10.0,33,0.00,,,0.00,,2013-02-05 18:52:00,
2013-02-05 14:02:00,17.0,-7.0,30.06,NNW,346,4.0,13.0,33,0.00,,,0.00,,2013-02-05 19:02:00,
2013-02-05 14:11:00,17.0,-7.0,30.06,NNW,346,4.0,13.0,33,0.00,,,0.00,,2013-02-05 19:11:00,
2013-02-05 14:22:00,17.0,-7.0,30.06,NNW,330,6.0,13.0,33,0.00,,,0.00,,2013-02-05 19:22:00,
2013-02-05 14:32:00,18.0,-6.0,30.06,NNW,343,3.0,11.0,33,0.00,,,0.00,,2013-02-05 19:32:00,
2013-02-05 14:42:00,18.0,-6.0,30.06,NNW,343,3.0,11.0,33,0.00,,,0.00,,2013-02-05 19:42:00,
2013-02-05 14:52:00,18.0,-7.0,30.06,NW,312,3.0,12.0,32,0.00,,,0.00,,2013-02-05 19:52:00,
2013-02-05 15:02:00,18.0,-7.0,30.07,NW,306,6.0,11.0,32,0.00,,,0.00,,2013-02-05 20:02:00,
2013-02-05 15:11:00,18.0,-7.0,30.07,NW,306,6.0,11.0,32,0.00,,,0.00,,2013-02-05 20:11:00,
2013-02-05 15:21:00,18.0,-6.0,30.06,WNW,291,2.0,8.0,33,0.00,,,0.00,,2013-02-05 20:21:00,
2013-02-05 15:32:00,18.0,-7.0,30.07,WNW,300,4.0,9.0,32,0.00,,,0.00,,2013-02-05 20:32:00,
2013-02-05 15:42:00,18.0,-7.0,30.07,WNW,300,4.0,9.0,32,0.00,,,0.00,,2013-02-05 20:42:00,
2013-02-05 15:52:00,18.0,-7.0,30.07,WNW,300,4.0,9.0,32,0.00,,,0.00,,2013-02-05 20:52:00,
2013-02-05 16:02:00,18.0,-7.0,30.06,NW,324,1.0,6.0,32,0.00,,,0.00,,2013-02-05 21:02:00,
2013-02-05 16:11:00,18.0,-7.0,30.06,NW,324,1.0,6.0,32,0.00,,,0.00,,2013-02-05 21:11:00,
2013-02-05 16:22:00,18.0,-6.0,30.06,WNW,287,0.0,5.0,33,0.00,,,0.00,,2013-02-05 21:22:00,
2013-02-05 16:32:00,17.0,-8.0,30.06,NE,42,0.0,4.0,32,0.00,,,0.00,,2013-02-05 21:32:00,
2013-02-05 16:42:00,17.0,-8.0,30.06,NE,42,0.0,4.0,32,0.00,,,0.00,,2013-02-05 21:42:00,
2013-02-05 16:52:00,17.0,-6.0,30.06,West,279,1.0,4.0,34,0.00,,,0.00,,2013-02-05 21:52:00,
2013-02-05 17:02:00,16.0,-6.0,30.06,West,279,0.0,1.0,36,0.00,,,0.00,,2013-02-05 22:02:00,
2013-02-05 17:12:00,16.0,-6.0,30.06,West,279,0.0,1.0,36,0.00,,,0.00,,2013-02-05 22:12:00,
2013-02-05 17:22:00,15.0,-5.0,30.06,NW,308,1.0,4.0,39,0.00,,,0.00,,2013-02-05 22:22:00,
2013-02-05 17:32:00,15.0,-6.0,30.07,NW,309,0.0,1.0,38,0.00,,,0.00,,2013-02-05 22:32:00,
2013-02-05 17:42:00,15.0,-6.0,30.07,NW,309,0.0,1.0,38,0.00,,,0.00,,2013-02-05 22:42:00,
2013-02-05 17:52:00,15.0,-7.0,30.06,NW,309,0.0,2.0,37,0.00,,,0.00,,2013-02-05 22:52:00,
2013-02-05 18:02:00,16.0,-7.0,30.06,NW,309,0.0,2.0,34,0.00,,,0.00,,2013-02-05 23:02:00,
2013-02-05 18:11:00,16.0,-7.0,30.06,NW,309,0.0,2.0,34,0.00,,,0.00,,2013-02-05 23:11:00,
2013-02-05 18:22:00,16.0,-7.0,30.07,NW,311,0.0,2.0,34,0.00,,,0.00,,2013-02-05 23:22:00,
2013-02-05 18:32:00,15.0,-8.0,30.07,NW,311,1.0,3.0,35,0.00,,,0.00,,2013-02-05 23:32:00,
2013-02-05 18:42:00,15.0,-8.0,30.07,NW,311,1.0,3.0,35,0.00,,,0.00,,2013-02-05 23:42:00,
2013-02-05 18:52:00,15.0,-8.0,30.08,NE,50,1.0,3.0,35,0.00,,,0.00,,2013-02-05 23:52:00,
2013-02-05 19:02:00,15.0,-7.0,30.08,ENE,62,1.0,3.0,36,0.00,,,0.00,,2013-02-06 00:02:00,
2013-02-05 19:12:00,15.0,-7.0,30.08,ENE,62,1.0,3.0,36,0.00,,,0.00,,2013-02-06 00:12:00,
2013-02-05 19:22:00,15.0,-8.0,30.07,ESE,102,2.0,6.0,35,0.00,,,0.00,,2013-02-06 00:22:00,
2013-02-05 19:32:00,15.0,-7.0,30.07,East,93,2.0,7.0,36,0.00,,,0.00,,2013-02-06 00:32:00,
2013-02-05 19:42:00,15.0,-7.0,30.07,East,93,2.0,7.0,36,0.00,,,0.00,,2013-02-06 00:42:00,
2013-02-05 19:52:00,14.0,-7.0,30.07,ESE,107,3.0,8.0,37,0.00,,,0.00,,2013-02-06 00:52:00,
2013-02-05 20:02:00,14.0,-7.0,30.07,ESE,107,3.0,8.0,37,0.00,,,0.00,,2013-02-06 01:02:00,
2013-02-05 20:12:00,14.0,-7.0,30.07,ESE,107,3.0,8.0,37,0.00,,,0.00,,2013-02-06 01:12:00,
2013-02-05 20:22:00,14.0,-7.0,30.07,East,97,2.0,7.0,38,0.00,,,0.00,,2013-02-06 01:22:00,
2013-02-05 20:32:00,14.0,-7.0,30.07,SE,125,3.0,7.0,38,0.00,,,0.00,,2013-02-06 01:32:00,
2013-02-05 20:42:00,14.0,-7.0,30.07,SE,125,3.0,7.0,38,0.00,,,0.00,,2013-02-06 01:42:00,
2013-02-05 20:52:00,14.0,-6.0,30.08,ESE,106,3.0,7.0,40,0.00,,,0.00,,2013-02-06 01:52:00,
2013-02-05 21:02:00,13.0,-6.0,30.08,ESE,112,2.0,6.0,41,0.00,,,0.00,,2013-02-06 02:02:00,
2013-02-05 21:12:00,13.0,-6.0,30.08,ESE,112,2.0,6.0,41,0.00,,,0.00,,2013-02-06 02:12:00,
2013-02-05 21:22:00,13.0,-5.0,30.08,ESE,116,3.0,7.0,43,0.00,,,0.00,,2013-02-06 02:22:00,
2013-02-05 21:32:00,13.0,-4.0,30.08,ESE,122,3.0,7.0,45,0.00,,,0.00,,2013-02-06 02:32:00,
2013-02-05 21:42:00,13.0,-4.0,30.08,ESE,122,3.0,7.0,45,0.00,,,0.00,,2013-02-06 02:42:00,
2013-02-05 21:52:00,13.0,-3.0,30.08,ESE,120,3.0,7.0,49,0.00,,,0.00,,2013-02-06 02:52:00,
2013-02-05 22:03:00,13.0,-3.0,30.08,ESE,111,0.0,7.0,49,0.00,,,0.00,,2013-02-06 03:03:00,
2013-02-05 22:12:00,13.0,-3.0,30.08,ESE,111,0.0,7.0,49,0.00,,,0.00,,2013-02-06 03:12:00,
2013-02-05 22:22:00,13.0,-3.0,30.08,ESE,109,2.0,5.0,49,0.00,,,0.00,,2013-02-06 03:22:00,
2013-02-05 22:32:00,14.0,-4.0,30.08,SE,129,2.0,5.0,44,0.00,,,0.00,,2013-02-06 03:32:00,
2013-02-05 22:42:00,14.0,-4.0,30.08,SE,129,2.0,5.0,44,0.00,,,0.00,,2013-02-06 03:42:00,
2013-02-05 22:52:00,14.0,-3.0,30.07,East,100,3.0,9.0,45,0.00,,,0.00,,2013-02-06 03:52:00,
2013-02-05 23:02:00,14.0,-2.0,30.07,ESE,122,4.0,10.0,49,0.00,,,0.00,,2013-02-06 04:02:00,
2013-02-05 23:11:00,14.0,-2.0,30.07,ESE,122,4.0,10.0,49,0.00,,,0.00,,2013-02-06 04:11:00,
2013-02-05 23:22:00,14.0,-1.0,30.07,East,97,2.0,8.0,50,0.00,,,0.00,,2013-02-06 04:22:00,
2013-02-05 23:32:00,14.0,0.0,30.07,East,97,4.0,9.0,53,0.00,,,0.00,,2013-02-06 04:32:00,
2013-02-05 23:42:00,14.0,0.0,30.07,East,97,4.0,9.0,53,0.00,,,0.00,,2013-02-06 04:42:00,
2013-02-05 23:52:00,14.0,1.0,30.07,East,89,3.0,9.0,55,0.00,,,0.00,,2013-02-06 04:52:00,